ISR566 LLER-LLBG

Flight info

Callsign ISR566
Flight time 0h 46m
Altitude 21000
Route NURIT J10 AMMIT
Aircraft A320/M-SDE3FGHIRWY/LB1

Departure

Time 2026-04-25 16:41
Airport Ramon International Airport (LLER)

Arrival

Time 2026-04-25 17:27
Airport Ben Gurion International Airport (LLBG)
Time Latitude Longitude Altitude Speed Heading
2026-04-25 16:23 29.72770 35.00865 252 ft 0 kts 282°
2026-04-25 16:31 29.72767 35.00880 252 ft 3 kts 282°
2026-04-25 16:32 29.72763 35.00903 252 ft 3 kts 282°
2026-04-25 16:32 29.72759 35.00922 252 ft 2 kts 282°
2026-04-25 16:32 29.72757 35.00939 252 ft 0 kts 259°
2026-04-25 16:36 29.72765 35.00932 252 ft 3 kts 335°
2026-04-25 16:37 29.72824 35.00975 252 ft 17 kts 39°
2026-04-25 16:37 29.72846 35.01127 254 ft 21 kts 107°
2026-04-25 16:37 29.72916 35.01236 257 ft 22 kts 13°
2026-04-25 16:37 29.73110 35.01286 257 ft 35 kts 12°
2026-04-25 16:38 29.73384 35.01359 258 ft 46 kts 14°
2026-04-25 16:38 29.73724 35.01458 258 ft 55 kts 14°
2026-04-25 16:38 29.73944 35.01520 258 ft 32 kts 13°
2026-04-25 16:38 29.74165 35.01585 259 ft 24 kts 15°
2026-04-25 16:39 29.74320 35.01674 262 ft 20 kts 81°
2026-04-25 16:39 29.74305 35.01725 270 ft 0 kts 104°
2026-04-25 16:39 29.74302 35.01742 274 ft 8 kts 104°
2026-04-25 16:40 29.74271 35.01820 285 ft 16 kts 145°
2026-04-25 16:40 29.74100 35.01799 285 ft 39 kts 195°
2026-04-25 16:40 29.73579 35.01648 283 ft 120 kts 193°
2026-04-25 16:40 29.72536 35.01356 335 ft 181 kts 194°
2026-04-25 16:41 29.71268 35.00999 1012 ft 192 kts 194°
2026-04-25 16:41 29.70375 35.00738 1548 ft 200 kts 195°
2026-04-25 16:41 29.67816 34.98485 2850 ft 238 kts 260°
2026-04-25 16:42 29.68050 34.96561 3235 ft 256 kts 299°
2026-04-25 16:42 29.69323 34.95128 3904 ft 264 kts 335°
2026-04-25 16:42 29.71131 34.94789 4678 ft 268 kts
2026-04-25 16:42 29.72958 34.95273 5488 ft 271 kts 18°
2026-04-25 16:43 29.74740 34.96032 6299 ft 274 kts 21°
2026-04-25 16:43 29.76530 34.96835 7093 ft 277 kts 20°
2026-04-25 16:43 29.78356 34.97596 7865 ft 281 kts 18°
2026-04-25 16:43 29.80227 34.98300 8629 ft 284 kts 17°
2026-04-25 16:44 29.82105 34.98942 9366 ft 287 kts 15°
2026-04-25 16:44 29.84038 34.99562 10093 ft 290 kts 15°
2026-04-25 16:44 29.86050 35.00186 10404 ft 310 kts 14°
2026-04-25 16:44 29.88218 35.00847 10562 ft 333 kts 14°
2026-04-25 16:45 29.90534 35.01548 10730 ft 354 kts 14°
2026-04-25 16:45 29.92947 35.02282 11238 ft 362 kts 14°
2026-04-25 16:45 29.95400 35.03032 11883 ft 366 kts 14°
2026-04-25 16:45 29.97875 35.03791 12531 ft 370 kts 14°
2026-04-25 16:46 30.00378 35.04560 13174 ft 374 kts 14°
2026-04-25 16:46 30.02906 35.05336 13805 ft 377 kts 14°
2026-04-25 16:46 30.05455 35.06118 14427 ft 381 kts 14°
2026-04-25 16:46 30.07155 35.06631 14822 ft 383 kts 13°
2026-04-25 16:47 30.10663 35.07508 15611 ft 387 kts 10°
2026-04-25 16:47 30.13325 35.08058 16177 ft 390 kts
2026-04-25 16:47 30.16011 35.08568 16739 ft 393 kts
2026-04-25 16:47 30.18720 35.09072 17273 ft 396 kts
2026-04-25 16:48 30.21448 35.09593 17800 ft 399 kts
2026-04-25 16:48 30.24197 35.10132 18301 ft 402 kts
2026-04-25 16:48 30.26965 35.10664 18797 ft 405 kts
2026-04-25 16:48 30.29752 35.11188 19281 ft 408 kts
2026-04-25 16:49 30.32563 35.11707 19753 ft 410 kts
2026-04-25 16:49 30.35394 35.12231 20214 ft 413 kts
2026-04-25 16:49 30.38240 35.12772 20681 ft 416 kts
2026-04-25 16:49 30.41099 35.13323 20947 ft 417 kts
2026-04-25 16:50 30.43984 35.13884 21009 ft 426 kts
2026-04-25 16:50 30.46923 35.14455 21009 ft 430 kts
2026-04-25 16:50 30.49842 35.15022 21009 ft 431 kts
2026-04-25 16:50 30.52803 35.15599 21009 ft 431 kts
2026-04-25 16:51 30.55740 35.16303 21007 ft 431 kts 15°
2026-04-25 16:51 30.58562 35.17496 21011 ft 431 kts 22°
2026-04-25 16:51 30.61321 35.18853 21009 ft 431 kts 22°
2026-04-25 16:51 30.63188 35.19771 21009 ft 431 kts 22°
2026-04-25 16:52 30.66846 35.21567 21009 ft 431 kts 22°
2026-04-25 16:52 30.69608 35.22925 21008 ft 431 kts 22°
2026-04-25 16:52 30.72368 35.24282 21007 ft 430 kts 22°
2026-04-25 16:52 30.75128 35.25637 21005 ft 430 kts 22°
2026-04-25 16:53 30.80641 35.28348 21003 ft 430 kts 22°
2026-04-25 16:53 30.83392 35.29706 21002 ft 430 kts 22°
2026-04-25 16:53 30.86145 35.31066 21000 ft 429 kts 22°
2026-04-25 16:54 30.88892 35.32424 20999 ft 429 kts 22°
2026-04-25 16:54 30.91642 35.33784 20999 ft 429 kts 22°
2026-04-25 16:54 30.94449 35.34896 21001 ft 421 kts 13°
2026-04-25 16:54 30.97317 35.35445 21009 ft 416 kts
2026-04-25 16:55 31.00197 35.35728 21009 ft 415 kts
2026-04-25 16:55 31.03068 35.36017 21009 ft 414 kts
2026-04-25 16:55 31.05939 35.36314 21009 ft 414 kts
2026-04-25 16:55 31.08809 35.36614 21009 ft 414 kts
2026-04-25 16:56 31.11682 35.36912 21009 ft 414 kts
2026-04-25 16:56 31.14554 35.37211 21010 ft 414 kts
2026-04-25 16:56 31.17423 35.37509 21009 ft 414 kts
2026-04-25 16:56 31.20258 35.37806 21008 ft 414 kts
2026-04-25 16:57 31.23125 35.38108 21006 ft 414 kts
2026-04-25 16:57 31.24097 35.38210 21006 ft 414 kts
2026-04-25 16:57 31.28873 35.38711 19803 ft 420 kts
2026-04-25 16:57 31.31817 35.39020 18725 ft 428 kts
2026-04-25 16:58 31.34759 35.39518 17948 ft 426 kts 11°
2026-04-25 16:58 31.37641 35.40167 16985 ft 418 kts 11°
2026-04-25 16:58 31.40482 35.40801 15897 ft 413 kts 10°
2026-04-25 16:58 31.43286 35.41423 14857 ft 407 kts 10°
2026-04-25 16:59 31.46045 35.42034 13917 ft 399 kts 10°
2026-04-25 16:59 31.48688 35.42620 13694 ft 373 kts 10°
2026-04-25 16:59 31.51152 35.43169 13565 ft 349 kts 10°
2026-04-25 16:59 31.53460 35.43682 13438 ft 327 kts 10°
2026-04-25 17:00 31.55607 35.44159 13207 ft 311 kts 10°
2026-04-25 17:00 31.57708 35.44630 12716 ft 305 kts 10°
2026-04-25 17:00 31.59783 35.45095 12176 ft 302 kts 10°
2026-04-25 17:00 31.61836 35.45556 11603 ft 299 kts 10°
2026-04-25 17:01 31.63915 35.46028 10766 ft 305 kts 11°
2026-04-25 17:01 31.66044 35.46526 9732 ft 317 kts 11°
2026-04-25 17:01 31.68166 35.47033 9448 ft 302 kts 11°
2026-04-25 17:01 31.70156 35.47419 9224 ft 286 kts
2026-04-25 17:02 31.72136 35.47456 9097 ft 284 kts 355°
2026-04-25 17:02 31.74085 35.47118 8976 ft 283 kts 346°
2026-04-25 17:02 31.75957 35.46415 8853 ft 283 kts 336°
2026-04-25 17:02 31.77705 35.45365 8726 ft 282 kts 327°
2026-04-25 17:03 31.79302 35.44036 8602 ft 282 kts 323°
2026-04-25 17:03 31.80877 35.42668 8471 ft 281 kts 323°
2026-04-25 17:03 31.82451 35.41304 8351 ft 281 kts 323°
2026-04-25 17:03 31.84023 35.39940 8226 ft 281 kts 323°
2026-04-25 17:04 31.85595 35.38579 8098 ft 280 kts 323°
2026-04-25 17:04 31.87167 35.37219 7983 ft 280 kts 323°
2026-04-25 17:04 31.88737 35.35862 7850 ft 280 kts 323°
2026-04-25 17:04 31.90306 35.34505 7724 ft 279 kts 323°
2026-04-25 17:05 31.91877 35.33142 7598 ft 280 kts 323°
2026-04-25 17:05 31.94994 35.30454 7349 ft 279 kts 323°
2026-04-25 17:05 31.96559 35.29099 7225 ft 279 kts 323°
2026-04-25 17:06 31.98118 35.27737 7115 ft 278 kts 323°
2026-04-25 17:06 31.99676 35.26373 7123 ft 279 kts 323°
2026-04-25 17:06 32.01193 35.24957 7123 ft 278 kts 315°
2026-04-25 17:06 32.02540 35.23318 7124 ft 278 kts 313°
2026-04-25 17:07 32.03881 35.21672 7124 ft 278 kts 313°
2026-04-25 17:07 32.05222 35.20032 7124 ft 277 kts 314°
2026-04-25 17:07 32.06563 35.18393 7124 ft 277 kts 314°
2026-04-25 17:07 32.07901 35.16758 7123 ft 277 kts 313°
2026-04-25 17:08 32.09202 35.15078 7002 ft 277 kts 311°
2026-04-25 17:08 32.10456 35.13354 6878 ft 276 kts 310°
2026-04-25 17:08 32.11690 35.11614 6753 ft 276 kts 309°
2026-04-25 17:08 32.12917 35.09875 6626 ft 275 kts 309°
2026-04-25 17:09 32.14144 35.08145 6502 ft 274 kts 309°
2026-04-25 17:09 32.15368 35.06424 6369 ft 274 kts 310°
2026-04-25 17:09 32.16578 35.04728 6253 ft 273 kts 310°
2026-04-25 17:09 32.17802 35.03017 6130 ft 273 kts 310°
2026-04-25 17:10 32.19025 35.01310 6123 ft 272 kts 310°
2026-04-25 17:10 32.20174 34.99541 6123 ft 272 kts 300°
2026-04-25 17:10 32.20959 34.97512 6124 ft 271 kts 289°
2026-04-25 17:10 32.21595 34.95415 6124 ft 271 kts 289°
2026-04-25 17:11 32.22239 34.93319 6124 ft 271 kts 290°
2026-04-25 17:11 32.22886 34.91222 6124 ft 271 kts 290°
2026-04-25 17:11 32.23532 34.89130 6124 ft 271 kts 290°
2026-04-25 17:11 32.24178 34.87033 6124 ft 271 kts 290°
2026-04-25 17:12 32.24817 34.84945 6121 ft 267 kts 288°
2026-04-25 17:12 32.25042 34.82855 6119 ft 252 kts 261°
2026-04-25 17:12 32.24422 34.80958 6124 ft 249 kts 233°
2026-04-25 17:12 32.23109 34.79649 6125 ft 250 kts 204°
2026-04-25 17:13 32.21474 34.78943 6125 ft 251 kts 199°
2026-04-25 17:13 32.20940 34.78728 6125 ft 251 kts 199°
2026-04-25 17:13 32.18160 34.77645 6122 ft 251 kts 193°
2026-04-25 17:13 32.16425 34.77538 6123 ft 251 kts 172°
2026-04-25 17:14 32.14782 34.78153 6059 ft 252 kts 151°
2026-04-25 17:14 32.13411 34.79424 5933 ft 252 kts 133°
2026-04-25 17:14 32.12222 34.80944 5814 ft 252 kts 133°
2026-04-25 17:14 32.11024 34.82455 5675 ft 252 kts 133°
2026-04-25 17:15 32.09826 34.83958 5559 ft 251 kts 133°
2026-04-25 17:15 32.08630 34.85457 5434 ft 251 kts 133°
2026-04-25 17:15 32.07434 34.86955 5301 ft 250 kts 133°
2026-04-25 17:15 32.06242 34.88450 5188 ft 250 kts 133°
2026-04-25 17:16 32.05054 34.89943 5056 ft 250 kts 133°
2026-04-25 17:16 32.03865 34.91438 4933 ft 249 kts 133°
2026-04-25 17:16 32.02678 34.92924 4813 ft 249 kts 134°
2026-04-25 17:16 32.01496 34.94399 4680 ft 245 kts 134°
2026-04-25 17:17 32.00346 34.95836 4556 ft 236 kts 134°
2026-04-25 17:17 31.99256 34.97200 4425 ft 228 kts 133°
2026-04-25 17:17 31.98526 34.98116 4336 ft 227 kts 133°
2026-04-25 17:17 31.97447 34.99466 4215 ft 226 kts 134°
2026-04-25 17:18 31.96368 35.00813 4090 ft 226 kts 134°
2026-04-25 17:18 31.94941 35.02590 3924 ft 225 kts 134°
2026-04-25 17:18 31.93866 35.03929 3798 ft 225 kts 134°
2026-04-25 17:18 31.92793 35.05265 3673 ft 225 kts 134°
2026-04-25 17:19 31.92070 35.06166 3672 ft 221 kts 134°
2026-04-25 17:19 31.91005 35.07497 3795 ft 225 kts 134°
2026-04-25 17:19 31.89932 35.08837 3819 ft 225 kts 134°
2026-04-25 17:19 31.88860 35.10177 3824 ft 225 kts 133°
2026-04-25 17:20 31.87791 35.11518 3774 ft 225 kts 133°
2026-04-25 17:20 31.86721 35.12860 3724 ft 225 kts 133°
2026-04-25 17:20 31.85554 35.14020 3650 ft 224 kts 156°
2026-04-25 17:20 31.84042 35.14201 3602 ft 222 kts 195°
2026-04-25 17:21 31.82779 35.13226 3554 ft 221 kts 234°
2026-04-25 17:21 31.82302 35.11547 3502 ft 220 kts 271°
2026-04-25 17:21 31.82805 35.09884 3402 ft 220 kts 309°
2026-04-25 17:21 31.84066 35.08904 3322 ft 220 kts 340°
2026-04-25 17:22 31.85496 35.08254 3324 ft 221 kts 336°
2026-04-25 17:22 31.86428 35.07776 3324 ft 221 kts 335°
2026-04-25 17:22 31.88299 35.06776 3324 ft 220 kts 335°
2026-04-25 17:22 31.89695 35.06026 3324 ft 221 kts 335°
2026-04-25 17:23 31.91092 35.05282 3324 ft 220 kts 335°
2026-04-25 17:23 31.92300 35.04208 3321 ft 219 kts 306°
2026-04-25 17:23 31.93104 35.02682 3261 ft 218 kts 301°
2026-04-25 17:23 31.93894 35.01136 2702 ft 223 kts 301°
2026-04-25 17:24 31.94690 34.99602 2283 ft 212 kts 301°
2026-04-25 17:24 31.95415 34.98213 1990 ft 191 kts 301°
2026-04-25 17:24 31.96070 34.96958 1734 ft 168 kts 301°
2026-04-25 17:24 31.96649 34.95848 1485 ft 152 kts 301°
2026-04-25 17:25 31.97190 34.94810 1281 ft 146 kts 301°
2026-04-25 17:25 31.97718 34.93797 1079 ft 144 kts 301°
2026-04-25 17:25 31.98238 34.92799 873 ft 143 kts 301°
2026-04-25 17:25 31.98755 34.91805 672 ft 142 kts 301°
2026-04-25 17:26 31.99272 34.90815 469 ft 141 kts 301°
2026-04-25 17:26 31.99789 34.89827 247 ft 141 kts 300°
2026-04-25 17:26 32.00294 34.88855 129 ft 132 kts 302°
2026-04-25 17:26 32.00704 34.88063 116 ft 86 kts 301°
2026-04-25 17:27 32.00927 34.87629 118 ft 45 kts 301°
2026-04-25 17:27 32.01041 34.87363 119 ft 29 kts 285°
2026-04-25 17:27 32.01062 34.87188 120 ft 14 kts 273°
2026-04-25 17:27 32.01062 34.87104 120 ft 14 kts 266°
2026-04-25 17:28 32.00992 34.87067 119 ft 9 kts 110°
2026-04-25 17:28 32.00972 34.87118 117 ft 0 kts 120°
2026-04-25 17:28 32.00956 34.87150 119 ft 13 kts 120°
2026-04-25 17:28 32.00845 34.87162 118 ft 20 kts 218°
2026-04-25 17:29 32.00751 34.87099 120 ft 7 kts 192°
2026-04-25 17:29 32.00696 34.87146 117 ft 6 kts 141°
2026-04-25 17:29 32.00669 34.87155 119 ft 4 kts 181°
2026-04-25 17:29 32.00635 34.87149 117 ft 0 kts 188°